Location: Arroyo de San Miguel
(40.9167°N, 4.6667°W)
Time: 02:11:48
(UTC+00:00)

Meteor 1-27 Rocket - Pass Details

Date: 19 May 2025
Orbit: 830 x 908 km, 81.3° (Epoch: 23 June)

Event Time Altitude Azimuth Distance (km) Brightness Sun altitude
Exits shadow 22:30:55 40° 91° (E) 1,229 4.3 -24.5°
Drops below altitude 10° 22:36:01 10° 25° (NNE) 2,460 6.6 -24.9°
Sets 22:38:33 0° 18° (NNE) 3,392 7.5 -25.1°
